Location: Unspecified
(42.9300°N, 71.1866°W)
Time: 16:15:48
(UTC-04:00)

Genesis I - Visible Passes

Search period start: 25 August 2016 00:00
Search period end: 04 September 2016 00:00
Orbit: 501 x 533 km, 64.5° (Epoch: 24 August)

Date Brightness Start Highest point End Pass type
(mag) Time Alt. Az. Time Alt. Az. Time Alt. Az.
25 Aug 6.1 23:21:12 10° NNW 23:22:09 16° NNW 23:22:09 16° NNW visible
26 Aug 5.9 23:05:57 10° NNW 23:07:07 18° NNW 23:07:07 18° NNW visible
27 Aug 5.7 22:50:41 10° NNW 22:52:06 20° NNW 22:52:06 20° NNW visible
28 Aug 5.5 22:35:26 10° NNW 22:37:08 23° NNW 22:37:08 23° NNW visible
29 Aug 5.1 22:20:10 10° NNW 22:22:11 27° N 22:22:11 27° N visible
30 Aug 4.8 22:04:54 10° NNW 22:07:17 32° N 22:07:17 32° N visible
31 Aug 4.3 21:49:38 10° NNW 21:52:25 39° N 21:52:25 39° N visible
01 Sep 3.9 21:34:22 10° NNW 21:37:35 48° NNE 21:37:35 48° NNE visible
02 Sep 3.4 21:19:06 10° NNW 21:22:49 57° NE 21:22:49 57° NE visible
03 Sep 3.2 21:03:50 10° NNW 21:07:45 61° NE 21:08:05 58° E visible
